GW5689 Weather Reports


time (UTC)temp
C
wind
direction
speed
KPH
gust
KPH
rain 1hr
cm
rain 24hr
cm
rain mn
cm
humidity
%
barometer
mb
20260503192518 16 138 3.2 4.8 0.00 0.00 0.00 29 1015.5
20260503192014 16 3 3.2 9.7 0.00 0.00 0.00 29 1015.6
20260503191511 16 23 1.6 11.3 0.00 0.00 0.00 32 1015.4
20260503191008 17 350 3.2 4.8 0.00 0.00 0.00 28 1015.6
20260503190505 16 36 1.6 12.9 0.00 0.00 0.00 29 1015.7
20260503190002 16 74 1.6 9.7 0.00 0.00 0.00 30 1015.8
20260503185458 15 147 4.8 9.7 0.00 0.00 0.00 29 1015.8
20260503184957 16 312 3.2 14.5 0.00 0.00 0.00 31 1016.0
20260503184454 16 133 1.6 11.3 0.00 0.00 0.00 28 1016.0
20260503183950 16 30 3.2 11.3 0.00 0.00 0.00 30 1016.1
20260503183447 15 54 0.0 4.8 0.00 0.00 0.00 28 1016.1
20260503182944 16 51 0.0 3.2 0.00 0.00 0.00 31 1016.3
20260503182443 16 29 1.6 11.3 0.00 0.00 0.00 29 1016.1
20260503181940 16 33 3.2 6.4 0.00 0.00 0.00 29 1016.2
20260503181437 16 12 6.4 9.7 0.00 0.00 0.00 28 1016.2
20260503180933 16 192 6.4 11.3 0.00 0.00 0.00 29 1016.1
20260503180432 15 36 0.0 1.6 0.00 0.00 0.00 33 1016.1
20260503175928 15 18 1.6 4.8 0.00 0.00 0.00 34 1016.5
20260503175426 15 127 4.8 9.7 0.00 0.00 0.00 31 1016.1
20260503174921 15 67 1.6 6.4 0.00 0.00 0.00 31 1016.2
20260503174420 15 39 3.2 9.7 0.00 0.00 0.00 32 1016.2
20260503173920 15 355 9.7 11.3 0.00 0.00 0.00 30 1016.3
20260503173416 15 119 0.0 4.8 0.00 0.00 0.00 32 1016.3
20260503172913 15 154 3.2 3.2 0.00 0.00 0.00 33 1016.3
20260503172411 14 144 3.2 11.3 0.00 0.00 0.00 34 1016.1
20260503171907 15 108 1.6 4.8 0.00 0.00 0.00 30 1016.6
20260503171404 15 108 3.2 9.7 0.00 0.00 0.00 34 1016.6
20260503170901 15 84 1.6 6.4 0.00 0.00 0.00 34 1016.5
20260503170357 15 158 4.8 4.8 0.00 0.00 0.00 33 1016.6
20260503150749 11 36 3.2 6.4 0.00 0.00 0.00 42 1017.7
20260503150245 11 43 4.8 4.8 0.00 0.00 0.00 39 1017.6
20260503140210 10 49 8.0 9.7 0.00 0.00 0.00 43 1017.3
20260503131140 7 43 3.2 11.3 0.00 0.00 0.00 52 1017.5
20260503130637 7 213 3.2 4.8 0.00 0.00 0.00 50 1017.5
20260503130135 8 15 4.8 9.7 0.00 0.00 0.00 51 1017.3
20260503110527 1 51 0.0 0.0 0.00 0.00 0.00 89 1016.7
20260503090414 4 54 0.0 0.0 0.00 0.00 0.00 76 1015.2
20260503081340 4 50 0.0 0.0 0.00 0.00 0.00 77 1015.0
20260503080837 3 53 0.0 0.0 0.00 0.00 0.00 79 1015.0
20260503080334 3 50 0.0 0.0 0.00 0.00 0.00 79 1014.9
20260503072811 4 46 0.0 1.6 0.00 0.00 0.00 76 1014.8
20260503072308 4 55 0.0 0.0 0.00 0.00 0.00 77 1014.7
20260503071804 3 79 1.6 1.6 0.00 0.00 0.00 75 1014.7
20260503071301 3 52 0.0 0.0 0.00 0.00 0.00 79 1014.4
20260503070757 3 53 0.0 0.0 0.00 0.00 0.00 79 1014.6
20260503070255 3 50 0.0 0.0 0.00 0.00 0.00 78 1014.7
20260503060220 6 64 0.0 3.2 0.00 0.00 0.00 68 1014.3
20260503054707 6 197 1.6 6.4 0.00 0.00 0.00 68 1014.3
20260503054205 6 61 0.0 3.2 0.00 0.00 0.00 68 1014.5
20260503053702 6 71 1.6 6.4 0.00 0.00 0.00 67 1014.4
20260503053201 6 128 3.2 4.8 0.00 0.00 0.00 67 1014.4
20260503052657 6 111 1.6 3.2 0.00 0.00 0.00 70 1014.4
20260503052153 6 51 0.0 0.0 0.00 0.00 0.00 69 1014.3
20260503051648 6 57 1.6 3.2 0.00 0.00 0.00 68 1014.4
20260503051146 6 58 1.6 3.2 0.00 0.00 0.00 66 1014.1
20260503050643 6 103 1.6 3.2 0.00 0.00 0.00 69 1014.1
20260503050140 6 55 0.0 1.6 0.00 0.00 0.00 70 1014.4
20260503045637 6 90 1.6 1.6 0.00 0.00 0.00 69 1014.4
20260503045134 6 68 0.0 3.2 0.00 0.00 0.00 70 1014.4
20260503044631 6 91 3.2 3.2 0.00 0.00 0.00 69 1014.5
20260503044129 6 97 3.2 3.2 0.00 0.00 0.00 69 1014.4
20260503043625 6 63 1.6 3.2 0.00 0.00 0.00 72 1014.4
20260503043122 6 78 1.6 3.2 0.00 0.00 0.00 69 1014.3
20260503042618 6 66 0.0 1.6 0.00 0.00 0.00 70 1014.5
20260503042114 6 58 0.0 1.6 0.00 0.00 0.00 70 1014.6
20260503041611 6 65 0.0 3.2 0.00 0.00 0.00 69 1014.5
20260503041109 6 305 3.2 3.2 0.00 0.00 0.00 67 1014.5
20260503040606 6 55 1.6 1.6 0.00 0.00 0.00 67 1014.3
20260503040103 6 104 1.6 3.2 0.00 0.00 0.00 67 1014.4
20260503035600 6 334 1.6 3.2 0.00 0.00 0.00 68 1014.3
20260503035058 7 205 3.2 4.8 0.00 0.00 0.00 66 1014.3
20260503034555 7 330 3.2 4.8 0.00 0.00 0.00 65 1014.1
20260503034052 7 102 1.6 4.8 0.00 0.00 0.00 65 1014.2
20260503033549 7 139 3.2 4.8 0.00 0.00 0.00 64 1014.1
20260503033047 7 246 6.4 9.7 0.00 0.00 0.00 63 1014.2
20260503032545 7 228 9.7 12.9 0.00 0.00 0.00 62 1014.1
20260503032043 7 327 4.8 9.7 0.00 0.00 0.00 62 1014.1
20260503031540 7 209 3.2 11.3 0.00 0.00 0.00 62 1014.1
20260503031037 7 204 6.4 11.3 0.00 0.00 0.00 61 1014.1
20260503030533 7 258 3.2 12.9 0.00 0.00 0.00 61 1014.1
20260503030031 7 199 8.0 12.9 0.00 0.00 0.00 60 1014.2
20260503025527 7 221 3.2 3.2 0.00 0.00 0.00 59 1014.0
20260503025025 7 50 0.0 6.4 0.00 0.00 0.00 58 1014.0
20260503024521 7 75 3.2 3.2 0.00 0.00 0.00 58 1014.1
20260503024018 8 53 0.0 6.4 0.00 0.00 0.00 56 1014.2
20260503023515 8 59 0.0 3.2 0.00 0.00 0.00 56 1014.2
20260503023012 8 95 0.0 1.6 0.00 0.00 0.00 57 1014.4
20260503022508 8 47 0.0 3.2 0.00 0.00 0.00 53 1014.1
20260503022003 8 317 1.6 4.8 0.00 0.00 0.00 52 1014.1
20260503021500 9 52 4.8 6.4 0.00 0.00 0.00 49 1014.2
20260503020957 9 111 3.2 3.2 0.00 0.00 0.00 51 1014.1
20260503020454 9 51 0.0 3.2 0.00 0.00 0.00 50 1014.0
20260503015951 9 33 0.0 1.6 0.00 0.00 0.00 49 1014.0
20260503015448 10 53 0.0 4.8 0.00 0.00 0.00 51 1014.0
20260503014944 10 129 3.2 3.2 0.00 0.00 0.00 48 1013.6
20260503014441 10 51 0.0 1.6 0.00 0.00 0.00 49 1013.8
20260503013939 10 65 1.6 3.2 0.00 0.00 0.00 46 1013.9
20260503013436 10 83 1.6 1.6 0.00 0.00 0.00 47 1013.7
20260503012933 10 104 3.2 3.2 0.00 0.00 0.00 47 1013.7
20260503012431 10 56 0.0 3.2 0.00 0.00 0.00 45 1013.8
20260503011926 10 77 1.6 1.6 0.00 0.00 0.00 48 1013.6
20260503011424 10 41 0.0 1.6 0.00 0.00 0.00 47 1013.6
20260503010921 10 178 3.2 3.2 0.00 0.00 0.00 47 1013.4
20260503010418 10 101 1.6 3.2 0.00 0.00 0.00 46 1013.4
20260503005915 10 47 0.0 3.2 0.00 0.00 0.00 44 1013.4
20260503005412 10 100 3.2 3.2 0.00 0.00 0.00 44 1013.2
20260503004908 10 78 0.0 3.2 0.00 0.00 0.00 43 1013.2
20260503004405 10 340 3.2 9.7 0.00 0.00 0.00 42 1013.0
20260503003903 10 51 1.6 6.4 0.00 0.00 0.00 43 1013.0
20260503003359 10 81 0.0 4.8 0.00 0.00 0.00 45 1012.7
20260503002857 10 102 0.0 4.8 0.00 0.00 0.00 43 1012.8
20260503002354 11 77 1.6 1.6 0.00 0.00 0.00 45 1012.7
20260503001850 10 72 1.6 4.8 0.00 0.00 0.00 43 1012.7
20260503001346 11 68 1.6 1.6 0.00 0.00 0.00 42 1012.6
20260503000844 11 136 0.0 1.6 0.00 0.00 0.00 43 1012.6
20260503000341 11 74 0.0 3.2 0.00 0.00 0.00 42 1012.6
20260502235838 11 106 1.6 3.2 0.00 0.00 0.00 42 1012.4
20260502235335 11 27 3.2 4.8 0.00 0.00 0.00 44 1012.4
20260502234832 11 40 1.6 9.7 0.00 0.00 0.00 42 1012.4
20260502234329 11 44 1.6 3.2 0.00 0.00 0.00 42 1012.3
20260502233826 11 81 3.2 3.2 0.00 0.00 0.00 40 1012.2
20260502233322 11 76 1.6 4.8 0.00 0.00 0.00 42 1011.9
20260502232819 11 149 3.2 6.4 0.00 0.00 0.00 39 1012.2
20260502232315 12 50 3.2 6.4 0.00 0.00 0.00 38 1012.4
20260502231812 12 54 0.0 6.4 0.00 0.00 0.00 38 1012.1
20260502231310 12 72 3.2 4.8 0.00 0.00 0.00 39 1012.1
20260502230808 12 46 0.0 3.2 0.00 0.00 0.00 37 1012.2
20260502230306 12 47 4.8 6.4 0.00 0.00 0.00 38 1012.2
20260502225802 12 202 6.4 11.3 0.00 0.00 0.00 37 1012.4
20260502225259 12 171 4.8 12.9 0.00 0.00 0.00 37 1012.0
20260502224755 12 256 1.6 6.4 0.00 0.00 0.00 38 1012.1
20260502224252 12 25 3.2 12.9 0.00 0.00 0.00 38 1012.1
20260502223749 13 24 6.4 12.9 0.00 0.00 0.00 38 1012.0
20260502223248 13 14 3.2 3.2 0.00 0.00 0.00 39 1011.9
20260502222745 13 153 1.6 3.2 0.00 0.00 0.00 39 1011.8
20260502222242 13 51 0.0 11.3 0.00 0.00 0.00 36 1012.1
20260502221737 13 12 1.6 4.8 0.00 0.00 0.00 36 1011.9
20260502221234 13 5 1.6 3.2 0.00 0.00 0.00 37 1012.2
20260502220731 13 60 3.2 9.7 0.00 0.00 0.00 37 1012.0
20260502220227 14 225 6.4 9.7 0.00 0.00 0.00 36 1012.0
20260502215724 15 153 3.2 4.8 0.00 0.00 0.00 35 1011.9
20260502215221 15 20 6.4 11.3 0.00 0.00 0.00 34 1011.9
20260502214718 13 221 6.4 6.4 0.00 0.00 0.00 36 1011.8
20260502214215 13 213 6.4 9.7 0.00 0.00 0.00 36 1011.8
20260502213712 13 206 3.2 6.4 0.00 0.00 0.00 37 1011.7
20260502213210 14 59 0.0 9.7 0.00 0.00 0.00 36 1011.6
20260502212708 14 26 1.6 17.7 0.00 0.00 0.00 36 1011.8
20260502212206 15 301 4.8 6.4 0.00 0.00 0.00 36 1011.6
20260502211702 13 103 3.2 11.3 0.00 0.00 0.00 36 1011.6
20260502211159 13 205 3.2 12.9 0.00 0.00 0.00 38 1011.6
20260502210656 14 225 8.0 9.7 0.00 0.00 0.00 37 1011.6
20260502210153 14 229 6.4 11.3 0.00 0.00 0.00 36 1011.7
20260502205650 14 115 1.6 3.2 0.00 0.00 0.00 35 1011.9
20260502205146 15 87 3.2 3.2 0.00 0.00 0.00 38 1011.8
20260502204643 14 213 6.4 9.7 0.00 0.00 0.00 39 1011.7
20260502204141 13 0 3.2 11.3 0.00 0.00 0.00 39 1012.0
20260502203638 15 236 16.1 20.9 0.00 0.00 0.00 36 1011.7
20260502203136 15 45 1.6 17.7 0.00 0.00 0.00 38 1011.8
20260502202630 15 133 0.0 6.4 0.00 0.00 0.00 38 1011.6
20260502202129 15 165 6.4 12.9 0.00 0.00 0.00 36 1011.7
20260502201625 14 230 1.6 9.7 0.00 0.00 0.00 38 1011.8
20260502201122 15 203 4.8 12.9 0.00 0.00 0.00 36 1011.7
20260502200617 15 296 4.8 9.7 0.00 0.00 0.00 37 1011.8
20260502200115 15 155 6.4 12.9 0.00 0.00 0.00 37 1011.7
20260502195613 15 348 6.4 11.3 0.00 0.00 0.00 36 1011.8
20260502195108 15 83 1.6 9.7 0.00 0.00 0.00 38 1011.9
20260502194606 16 144 3.2 6.4 0.00 0.00 0.00 36 1011.9
20260502194102 15 116 1.6 6.4 0.00 0.00 0.00 37 1011.9
20260502193559 14 324 1.6 6.4 0.00 0.00 0.00 40 1011.9
20260502193056 13 110 4.8 9.7 0.00 0.00 0.00 38 1012.0